COSMOS 1953

Last updated on Sun Aug 31 2025 00:02:14 GMT+0000 (Coordinated Universal Time)

1 19210U 88050A 25242.05289662 .00012169 00000+0 48453-3 0 9992 2 19210 82.5129 350.4923 0013489 81.9884 278.2884 15.25034957 8548
UTC large
Height (km)
Speed (km/s)
/
Latitude / Longitude
Inclination (degrees)
Orbital Period (minutes)
Azimuth
Elevation
Range (km)
Doppler Factor

Next 0 passes for location: London (51.5072 / 0.1276)

Sorry there are no passes over London.